This is the latest recevied weather packets stored in our database for station/object KD0RII. If no packets are shown the sender has not sent any weather packets the latest 10 day(s).
| Time | Temp. | Humidity | Pressure | Rain* | Wind** | Luminosity | Snow |
|---|---|---|---|---|---|---|---|
| 1778023812 | 12.22° C | 76% | 1013.3 hPa | 0 mm | - | 89 W/m² | - |
| 1778023509 | 12.22° C | 77% | 1012.9 hPa | 0 mm | - | 109 W/m² | - |
| 1778023207 | 12.22° C | 78% | 1012.9 hPa | 0 mm | - | 246 W/m² | - |
| 1778022903 | 11.67° C | 79% | 1013.2 hPa | 0 mm | - | 157 W/m² | - |
| 1778022602 | 11.67° C | 80% | 1012.9 hPa | 0 mm | - | 135 W/m² | - |
| 1778022299 | 11.67° C | 79% | 1013.1 hPa | 0 mm | - | 110 W/m² | - |
| 1778021995 | 11.67° C | 79% | 1013.2 hPa | 0 mm | - | 110 W/m² | - |
| 1778021692 | 11.67° C | 78% | 1013.2 hPa | 0 mm | - | 124 W/m² | - |
| 1778021388 | 11.67° C | 80% | 1013.1 hPa | 0 mm | - | 123 W/m² | - |
| 1778021085 | 12.22° C | 79% | 1013.3 hPa | 0 mm | - | 105 W/m² | - |
| 1778020783 | 12.22° C | 82% | 1013.2 hPa | 0 mm | - | 130 W/m² | - |
| 1778020479 | 11.67° C | 82% | 1013.2 hPa | 0 mm | - | 174 W/m² | - |
| 1778020176 | 11.67° C | 83% | 1013.2 hPa | 0 mm | - | 138 W/m² | - |
| 1778019872 | 11.67° C | 83% | 1013.3 hPa | 0 mm | - | 128 W/m² | - |
| 1778019568 | 11.67° C | 83% | 1013.3 hPa | 0 mm | - | 142 W/m² | - |
| 1778019266 | 11.11° C | 82% | 1013.2 hPa | 0 mm | - | 143 W/m² | - |
| 1778018963 | 11.11° C | 85% | 1012.9 hPa | 0 mm | - | 147 W/m² | - |
| 1778018659 | 11.11° C | 85% | 1013.3 hPa | 0 mm | - | 155 W/m² | - |
| 1778018357 | 11.11° C | 86% | 1013.1 hPa | 0 mm | - | 154 W/m² | - |
| 1778018055 | 11.11° C | 85% | 1013.3 hPa | 0 mm | - | 134 W/m² | - |
| 1778017753 | 11.11° C | 86% | 1013.5 hPa | 0 mm | - | 143 W/m² | - |
| 1778017450 | 10.56° C | 88% | 1013.8 hPa | 0 mm | - | 174 W/m² | - |
| 1778017147 | 10.56° C | 87% | 1013.9 hPa | 0 mm | - | 211 W/m² | - |
| 1778016845 | 10° C | 88% | 1013.9 hPa | 0 mm | - | 202 W/m² | - |
| 1778016541 | 10° C | 88% | 1013.8 hPa | 0 mm | - | 145 W/m² | - |
* Rain latest hour (hover to see other rain measurements)
** Current wind speed in m/s (hover to see current wind gust speed)